Weather History for LKPR - March, 2012

Change the Weather History Date:

Saturday, March 24, 2012

  Actual Average Record
Temperature  
Mean Temperature 50 °F -  
Max Temperature 64 °F 54 °F 62 °F (2003)
Min Temperature 37 °F 35 °F 13 °F (2013)
Degree Days  
Heating Degree Days 14    
Moisture  
Dew Point 39 °F    
Average Humidity 66    
Maximum Humidity 93    
Minimum Humidity 33    
Precipitation  
Precipitation 0.00 in 0.05 in - ()
Sea Level Pressure  
Sea Level Pressure 30.28 in    
Wind  
Wind Speed 3 mph ()    
Max Wind Speed 10 mph    
Max Gust Speed -    
Visibility 6.4 miles    
Events      
Averages and records for this station are not official NWS values.
T = Trace of Precipitation, MM = Missing Value Source: Averaged Metar Reports

Daily Weather History Graph

Daily Weather History Graph

Search for Another Location

Airport or City:

Trip Planner

Search our weather history database for the weather conditions in past years. The results will help you decide how hot, cold, wet, or windy it might be!

Date:

Astronomy

Mar. 24, 2012 Rise Set
Actual Time 5:56 AM CET 6:22 PM CET
Civil Twilight 5:24 AM CET 6:55 PM CET
Nautical Twilight 4:45 AM CET 7:33 PM CET
Astronomical Twilight 4:05 AM CET 8:14 PM CET
Moon 6:11 AM CET (3/24) 8:44 PM CET (3/24)
Length of Visible Light 13h 31m
Length of Day
12h 26m
Waxing Crescent, 3% of the Moon is Illuminated
Mar 24
Waxing Crescent
Mar 30
First Quarter
Apr 6
Full
Apr 13
Last Quarter
Apr 21
New

Hourly Weather History & Observations

Time (CET) Temp. Windchill Dew Point Humidity Pressure Visibility Wind Dir Wind Speed Gust Speed Precip Events Conditions
12:00 AM 44.6 °F - 37.4 °F 76% 30.30 in - Variable 2.3 mph - N/A   Clear
12:30 AM 44.6 °F - 39.2 °F 81% 30.27 in - Calm Calm - N/A   Clear
1:00 AM 43 °F - 38 °F 75% 30.33 in 7 mi WSW 4.5 mph - -  
1:00 AM 42.8 °F 40.1 °F 37.4 °F 81% 30.27 in - SW 4.6 mph - N/A   Clear
1:30 AM 42.8 °F 40.1 °F 37.4 °F 81% 30.27 in - West 4.6 mph - N/A   Clear
2:00 AM 42.8 °F 41.1 °F 37.4 °F 81% 30.27 in - West 3.5 mph - N/A   Clear
2:30 AM 41.0 °F 39.0 °F 37.4 °F 87% 30.27 in - WSW 3.5 mph - N/A   Clear
3:00 AM 42.8 °F 41.1 °F 39.2 °F 87% 30.27 in - West 3.5 mph - N/A   Clear
3:30 AM 41.0 °F - 37.4 °F 87% 30.27 in - West 2.3 mph - N/A   Clear
4:00 AM 42.8 °F - 39.2 °F 87% 30.27 in - West 2.3 mph - N/A   Clear
4:30 AM 42.8 °F - 39.2 °F 87% 30.27 in - Variable 1.2 mph - N/A   Clear
5:00 AM 39.2 °F 35.9 °F 37.4 °F 93% 30.27 in - SW 4.6 mph - N/A   Clear
5:30 AM 39.2 °F 35.9 °F 37.4 °F 93% 30.27 in 5.0 mi WSW 4.6 mph - N/A   Unknown
5:47 AM 37.4 °F 33.8 °F 35.6 °F 93% 30.27 in 3.1 mi NW 4.6 mph - N/A   Mist
6:00 AM 39.2 °F 37.0 °F 37.4 °F 93% 30.27 in 3.1 mi SW 3.5 mph - N/A   Mist
6:30 AM 41.0 °F 39.0 °F 37.4 °F 87% 30.27 in 3.7 mi West 3.5 mph - N/A   Unknown
7:00 AM 42 °F - 39 °F 84% 30.34 in 4 mi NW 4.5 mph - -   Mist
7:00 AM 41.0 °F 39.0 °F 39.2 °F 93% 30.30 in 3.7 mi SW 3.5 mph - N/A   Unknown
7:30 AM 44.6 °F 43.1 °F 41.0 °F 87% 30.30 in 4.3 mi WSW 3.5 mph - N/A   Unknown
8:00 AM 46.4 °F 45.2 °F 42.8 °F 87% 30.30 in 5.0 mi NNW 3.5 mph - N/A   Partly Cloudy
8:30 AM 48.2 °F - 42.8 °F 82% 30.30 in 5.0 mi Variable 2.3 mph - N/A   Partly Cloudy
9:00 AM 51.8 °F - 41.0 °F 67% 30.30 in 5.0 mi Variable 2.3 mph - N/A   Unknown
9:30 AM 53.6 °F - 42.8 °F 67% 30.30 in - Variable 2.3 mph - N/A   Clear
10:00 AM 55.4 °F - 41.0 °F 58% 30.30 in - Variable 2.3 mph - N/A   Clear
10:30 AM 57.2 °F - 42.8 °F 59% 30.30 in - North 4.6 mph - N/A   Clear
11:00 AM 59.0 °F - 42.8 °F 55% 30.30 in - NNE 4.6 mph - N/A   Clear
11:30 AM 59.0 °F - 41.0 °F 51% 30.30 in - NE 3.5 mph - N/A   Clear
12:00 PM 59.0 °F - 41.0 °F 51% 30.30 in - Variable 3.5 mph - N/A   Clear
12:30 PM 60.8 °F - 41.0 °F 48% 30.30 in - NNE 3.5 mph - N/A   Clear
1:00 PM 62 °F - 40 °F 33% 30.28 in 16 mi East 4.5 mph - -   Scattered Clouds
1:00 PM 60.8 °F - 41.0 °F 48% 30.27 in 6.2 mi NW 3.5 mph - N/A   Partly Cloudy
1:30 PM 62.6 °F - 41.0 °F 45% 30.27 in 6.2 mi North 4.6 mph - N/A   Partly Cloudy
2:00 PM 62.6 °F - 41.0 °F 45% 30.27 in 6.2 mi NNW 3.5 mph - N/A   Partly Cloudy
2:30 PM 62.6 °F - 39.2 °F 42% 30.27 in - WNW 6.9 mph - N/A   Clear
3:00 PM 62.6 °F - 37.4 °F 39% 30.27 in - NNW 4.6 mph - N/A   Clear
3:30 PM 62.6 °F - 37.4 °F 39% 30.24 in - North 3.5 mph - N/A   Clear
4:00 PM 62.6 °F - 35.6 °F 37% 30.24 in - North 5.8 mph - N/A   Clear
4:30 PM 62.6 °F - 35.6 °F 37% 30.24 in - NNW 4.6 mph - N/A   Clear
5:00 PM 62.6 °F - 33.8 °F 34% 30.24 in - NNE 3.5 mph - N/A   Clear
5:30 PM 62.6 °F - 37.4 °F 39% 30.24 in - NNW 5.8 mph - N/A   Clear
6:00 PM 59.0 °F - 41.0 °F 51% 30.24 in - NNE 10.4 mph - N/A   Clear
6:30 PM 57.2 °F - 42.8 °F 59% 30.24 in - NE 8.1 mph - N/A   Clear
7:00 PM 56 °F - 41 °F 47% 30.26 in 19 mi NNE 8.9 mph - -   Scattered Clouds
7:00 PM 57.2 °F - 41.0 °F 55% 30.24 in - NNE 5.8 mph - N/A   Clear
7:30 PM 53.6 °F - 41.0 °F 62% 30.27 in - NNE 5.8 mph - N/A   Clear
8:00 PM 53.6 °F - 41.0 °F 62% 30.27 in - North 3.5 mph - N/A   Clear
8:30 PM 51.8 °F - 39.2 °F 62% 30.27 in - North 2.3 mph - N/A   Clear
9:00 PM 50.0 °F - 39.2 °F 66% 30.27 in - WSW 3.5 mph - N/A   Clear
9:30 PM 48.2 °F - 39.2 °F 71% 30.27 in - West 4.6 mph - N/A   Clear
10:00 PM 48.2 °F - 39.2 °F 71% 30.27 in - West 4.6 mph - N/A   Clear
10:30 PM 48.2 °F - 37.4 °F 66% 30.27 in - WSW 4.6 mph - N/A   Clear
11:00 PM 46.4 °F 44.3 °F 39.2 °F 76% 30.30 in - West 4.6 mph - N/A   Clear
11:30 PM 44.6 °F 41.4 °F 37.4 °F 76% 30.30 in - WSW 5.8 mph - N/A   Clear